Location: Owatonna
(44.0840°N, 93.2260°W)
Time: 21:59:00
(UTC-05:00)

Daily predictions for brighter satellites

Satellite Brightness Start Highest point End
(mag) Time Altitude Azimuth Time Altitude Azimuth Time Altitude Azimuth
Cosmos 1709 Rocket 4.4 21:10:17 10° SSW 21:16:22 68° W 21:22:34 10° N
Cosmos 2074 Rocket 4.1 21:16:59 10° S 21:23:10 63° E 21:29:21 10° NNE
COSMOS 2406 3.4 21:19:01 10° NNW 21:24:46 65° ENE 21:30:27 10° SE
SPOT 5 3.6 21:20:23 10° SE 21:25:21 46° ENE 21:30:27 10° N
Cosmos 1190 Rocket 4.4 21:22:14 10° N 21:27:16 47° ENE 21:32:15 10° SE
Cosmos 909 Rocket 4.4 21:22:28 10° SSW 21:28:49 60° ESE 21:36:27 10° NE
SJ-11-01 4.4 21:24:08 10° SSE 21:28:53 82° WSW 21:33:40 10° NNW
H-2A R/B 2.1 21:25:19 10° SSE 21:29:37 65° ENE 21:33:51 10° N
ERS-1 Rocket 3.1 21:24:40 10° SSE 21:29:43 83° WSW 21:34:48 10° NNW
Meteor 1-10 Rocket 4.4 21:24:30 10° N 21:30:21 64° ENE 21:36:03 10° SSE
Cosmos 1356 Rocket 3.4 21:26:23 10° S 21:30:33 68° E 21:34:49 10° NNE
PSLV R/B 4.3 21:29:29 10° SE 21:32:02 27° ENE 21:34:36 10° N
ALOS 4.2 21:31:41 10° SSW 21:35:44 29° W 21:39:50 10° NW
ATLAS 5 CENTAUR R/B 2.5 21:34:43 10° NW 21:40:44 88° NE 21:46:55 11° SE
Terra 3.9 21:38:59 10° E 21:41:23 14° ENE 21:43:46 10° NNE
ARGOS 4.0 21:38:34 11° SE 21:43:13 34° ENE 21:48:00 10° N
PSLV R/B 3.9 21:40:44 10° W 21:44:02 41° SSW 21:46:43 14° SE
Abrixas rocket 3.9 21:44:23 10° W 21:47:16 25° SW 21:49:51 12° SSE
OPS 6432 4.5 21:44:42 10° SSW 21:48:02 47° ESE 21:51:03 10° NE
Cosmos 2278 Rocket 3.3 21:43:50 10° SSE 21:48:09 23° E 21:52:30 10° NE
Sich 1 Rocket 3.9 21:44:05 10° SSE 21:48:31 51° E 21:52:58 10° NNE
Cosmos 1844 4.3 21:45:10 10° S 21:50:21 36° ESE 21:55:37 10° NE
USA 234 4.0 21:45:05 10° ENE 21:50:35 28° SE 21:56:01 10° S
CZ-4B R/B 4.2 21:46:23 10° NNE 21:50:51 32° E 21:54:54 11° SSE
Cosmos 676 Rocket 4.3 21:51:55 10° NNW 21:57:00 52° ENE 22:01:02 16° SE
Cosmos 1825 3.1 21:54:30 15° SSE 21:57:05 31° E 22:00:30 10° NNE
Cosmos 1674 Rocket 3.6 21:52:53 10° N 21:57:22 87° W 22:01:49 10° S
Cosmos 1340 Rocket 4.5 21:55:59 10° SW 21:59:40 36° WNW 22:03:25 10° N
Cosmos 2056 Rocket 3.4 21:55:07 10° SSW 22:00:18 88° ESE 22:05:28 10° NNE
Cosmos 1844 Rocket 2.7 21:55:54 10° S 22:01:27 59° ESE 22:07:01 10° NNE
Meteor 1-27 Rocket 3.7 21:56:15 10° N 22:01:51 68° ENE 22:06:41 14° SSE
Cosmos 1371 Rocket 4.5 21:57:02 10° SSW 22:02:19 67° WNW 22:07:37 10° NNE
Cosmos 1939 Rocket 3.8 21:58:42 10° S 22:02:23 43° W 22:06:09 10° NNW
Cosmos 1461 4.4 21:59:32 10° WSW 22:04:02 45° NW 22:08:23 10° NNE
Cosmos 1782 3.0 22:00:34 10° NNW 22:04:34 71° W 22:08:35 10° S
Cosmos 1954 Rocket 4.5 21:59:40 10° N 22:04:42 47° ENE 22:08:21 18° SE
Cosmos 1174 4.0 22:01:52 10° NNW 22:05:07 40° NE 22:06:47 21° ESE
Cosmos 1184 Rocket 4.0 22:04:01 20° SE 22:05:12 25° E 22:08:00 10° NE
Cosmos 2082 Rocket 3.9 22:01:03 10° N 22:05:23 22° NE 22:09:37 10° E
Cosmos 1782 Rocket 4.1 22:07:23 17° SSE 22:10:24 40° E 22:14:35 10° NNE
COSMOS 2487 3.5 22:08:42 10° N 22:12:02 33° ENE 22:13:44 22° ESE
Atlas Centaur 2 3.4 22:11:58 10° S 22:12:00 10° S 22:12:00 10° S
SL-27 R/B 3.0 22:10:02 10° NNW 22:13:39 57° WSW 22:16:21 16° S
Cosmos 2263 Rocket 4.5 22:11:51 10° WSW 22:16:40 28° NW 22:21:29 10° N
YAOGAN 6 2.5 22:14:37 18° S 22:17:06 81° WSW 22:20:38 10° NNW
Coronas F rocket 4.1 22:15:08 10° SW 22:17:10 19° WNW 22:19:13 10° NNW
Cosmos 1408 2.7 22:15:26 19° SSE 22:17:50 55° E 22:21:26 10° NNE
CZ-4 R/B 4.2 22:14:15 10° NNE 22:18:43 42° E 22:21:34 20° SSE
Cosmos 962 Rocket 4.5 22:14:42 10° S 22:20:46 67° E 22:26:56 10° NNE
COS B Rocket 3.6 22:16:32 10° N 22:20:49 73° W 22:24:24 12° S
MetOp-A 4.4 22:16:22 12° S 22:21:19 70° WSW 22:26:41 10° NNW
SL-8 R/B 3.6 22:16:59 10° WSW 22:21:48 78° SSE 22:26:37 10° ENE
CENTAUR R/B 3.8 22:15:54 10° NW 22:23:20 46° WSW 22:30:41 12° S
Cosmos 1975 Rocket 3.1 22:20:47 10° N 22:25:04 59° E 22:27:24 25° SSE
Cosmos 2154 Rocket 4.0 22:19:21 10° S 22:25:36 89° W 22:31:51 10° N
Cosmos 1606 3.1 22:22:43 10° NNW 22:26:38 65° W 22:29:28 18° S
SL-08 RB Rocket 3.8 22:24:57 23° SSE 22:27:44 68° ENE 22:32:21 10° N
CARTOSAT-1 4.5 22:27:44 23° ESE 22:29:37 34° ENE 22:33:32 10° N
Okean 3 3.4 22:27:26 10° N 22:31:47 84° E 22:34:14 25° S
NOAA 11 4.2 22:28:50 20° SSE 22:32:45 87° ENE 22:38:17 10° NNW
NOSS 2-2 (D) 4.4 22:29:08 10° SW 22:33:15 56° NW 22:38:10 10° NNE
Cosmos 1908 Rocket 3.9 22:31:25 10° SSW 22:35:45 64° W 22:40:11 10° N
Cosmos 1242 Rocket 2.8 22:32:43 10° N 22:36:18 53° ENE 22:37:28 36° SE
USA 245 3.2 22:35:53 28° SSW 22:37:14 57° W 22:40:49 10° NNW
H-2A R/B 2.4 22:36:42 26° SE 22:39:40 55° ENE 22:44:54 10° N
Cosmos 1378 Rocket 4.0 22:38:05 10° NNW 22:42:19 57° W 22:45:11 20° SSW
Cosmos 1023 Rocket 4.5 22:38:06 10° NNW 22:43:12 68° ENE 22:45:42 30° SE
Cosmos 1295 Rocket 4.5 22:42:45 17° S 22:47:44 78° E 22:54:02 10° N
ERBS 4.3 22:46:39 10° WNW 22:49:11 19° SW 22:50:03 17° SW
Cosmos 1420 Rocket 4.1 22:46:17 25° S 22:49:12 55° ESE 22:54:19 10° NNE
Cosmos 2151 Rocket 4.2 22:49:00 33° SE 22:50:07 39° E 22:54:20 10° NNE
CZ-3C R/B 4.5 22:51:13 10° SW 22:53:41 11° SSW 22:55:36 10° SSW
SPOT 1/Viking Rocket 4.2 22:51:07 19° S 22:54:44 51° W 22:59:49 10° NNW
Cosmos 489 Rocket 4.4 22:49:25 10° NNW 22:55:40 85° WSW 22:59:03 29° SSE
Cosmos 2366 rocket 4.1 22:56:09 28° SSE 22:59:21 58° E 23:05:33 10° NNE
Cosmos 1238 Rocket 3.9 22:57:02 10° NNW 22:59:47 30° W 23:01:14 21° SW
BREEZE-M DEB (TANK) 3.4 22:58:23 10° WNW 23:00:20 30° N 23:03:38 10° ENE
Landsat 7 3.8 23:00:35 33° S 23:02:43 78° WSW 23:07:31 10° NNW
SAR-Lupe-2 4.0 23:02:28 42° E 23:02:51 44° ENE 23:06:16 10° N
Meteor 1-14 Rocket 4.2 23:00:06 28° S 23:03:09 71° E 23:08:45 10° NNE
Cosmos 1452 Rocket 4.0 22:58:28 10° SSW 23:03:40 61° WNW 23:08:55 10° NNE
Cosmos 2084 3.0 23:08:44 33° SSW 23:10:23 85° SE 23:14:14 10° NE
ASTEX 1 3.9 23:06:47 10° NNE 23:11:29 42° E 23:12:25 38° ESE
Intercosmos 25 3.9 23:11:43 26° SW 23:13:30 49° W 23:16:38 10° N
Cosmos 614 Rocket 3.8 23:09:37 10° NNW 23:14:45 84° ENE 23:16:24 44° SSE
Spot 4 3.8 23:13:28 43° SSE 23:15:02 75° ENE 23:19:55 10° N
Cosmos 1140 Rocket 3.7 23:10:33 10° NNW 23:15:38 63° WSW 23:17:37 36° S
Terra 1.8 23:16:52 42° S 23:18:29 78° WSW 23:23:16 10° NNW
Cosmos 2218 Rocket 4.0 23:17:25 26° S 23:21:18 85° W 23:27:44 10° N
DMSP B5D2-2 4.0 23:16:32 10° NNE 23:21:47 86° ESE 23:24:02 36° S
Okean 2 Rocket 4.2 23:20:05 18° SW 23:23:02 41° WNW 23:27:14 10° N
ARGOS 4.4 23:20:05 18° SSW 23:23:24 34° W 23:28:15 10° NNW
Okean 1 Rocket 4.0 23:24:31 33° E 23:24:31 33° E 23:28:30 10° NNE
ATLAS 5 CENTAUR R/B 4.4 23:20:51 10° WNW 23:24:53 18° WSW 23:28:29 12° SSW
BREEZE-M DEB (TANK) 3.3 23:17:12 10° WNW 23:25:44 43° SW 23:26:27 39° SSW
Cosmos 1300 Rocket 4.1 23:29:22 42° E 23:29:24 42° E 23:33:36 10° NNE
CZ-4C R/B 4.4 23:30:16 30° SW 23:31:10 34° W 23:34:50 10° NNW
Cosmos 2278 Rocket 2.8 23:26:15 10° SW 23:31:48 56° WNW 23:37:25 10° NNE
USA 234 3.2 23:27:28 10° NE 23:34:03 85° NW 23:40:35 10° SW
Cosmos 1850 Rocket 4.4 23:30:52 10° NNW 23:36:04 56° WSW 23:37:42 40° SSW
Cosmos 1833 Rocket 2.7 23:31:45 10° NNW 23:37:24 75° ENE 23:39:00 48° SE
Gbstr 26 Del rocket 4.4 23:32:58 10° NW 23:37:35 37° NNE 23:40:15 18° ENE
Cosmos 1727 Rocket 4.0 23:31:33 10° N 23:37:44 78° W 23:40:11 39° S
Cosmos 1812 2.6 23:36:13 10° N 23:40:03 79° ENE 23:40:03 79° ENE
Timation 2 Rocket 4.5 23:42:44 10° NW 23:48:26 46° WSW 23:50:18 35° SSW
Cosmos 2082 Rocket 2.2 23:44:21 10° NNW 23:50:04 71° WSW 23:51:28 51° S
Cosmos 1400 Rocket 4.3 23:56:13 26° ENE 23:56:13 26° ENE 23:58:53 10° NNE
